[Iaude] MPEC N17: 2024 MZ1 [a=1.26,e=0.24,i=19.3,H=23.5]
    mpec at cfa.harvard.edu 
    mpec at cfa.harvard.edu
       
    Tue Jul  2 09:58:24 EDT 2024
    
    
  
M.P.E.C. 2024-N17                                  Issued 2024 July 2, 13:56 UT
     The Minor Planet Electronic Circulars contain information on unusual
         minor planets, routine data on comets and natural satellites,
         and occasional editorial announcements.  They are published
    on behalf of Division F of the International Astronomical Union by the
          Minor Planet Center, Smithsonian Astrophysical Observatory,
                          Cambridge, MA 02138, U.S.A.
			  
             Prepared using the Tamkin Foundation Computer Network
                              MPC at CFA.HARVARD.EDU
            URL https://www.minorplanetcenter.net/    ISSN 1523-6714
                                    2024 MZ1                                    
Observations:
     K24M01Z* C2024 06 30.41558016 07 31.141+09 33 36.07         21.36wXEN017F51
     K24M01Z  C2024 06 30.42765716 07 33.537+09 34 11.94         21.58wXEN017F51
     K24M01Z  C2024 06 30.43976416 07 35.946+09 34 47.95         21.19wXEN017F51
     K24M01Z  C2024 06 30.45184716 07 38.388+09 35 23.86         22.03wXEN017F51
     K24M01Z KC2024 07 01.16903416 10 12.89 +10 09 49.4          21.4 GVEN017H21
     K24M01Z KC2024 07 01.18372316 10 15.76 +10 10 30.3          21.2 GVEN017H21
     K24M01Z  C2024 07 01.37459116 10 55.045+10 19 34.16         21.11GVEN017F51
     K24M01Z  C2024 07 01.37541116 10 55.182+10 19 36.37         21.18GVEN017F51
     K24M01Z 7C2024 07 01.92269316 12 46.437+10 43 35.77               VEN017Z84
     K24M01Z 7C2024 07 01.95118516 12 51.609+10 44 48.80         20.9 GVEN017Z84
     K24M01Z 7C2024 07 01.97902516 12 56.657+10 45 59.86               VEN017Z84
Observer details:
F51 Pan-STARRS 1, Haleakala.  Observers J. Herman, T. Lowe, P. Minguez, A.
    Schultz, I. Smith.  Measurers K. Chambers, T. de Boer, J. Fairlamb, H.
    Gao, M. Huber, C.-C. Lin, E. Magnier, Y. Ramanjooloo, R. Wainscoat, R.
    Weryk.  1.8-m Ritchey-Chretien + CCD.
H21 Astronomical Research Observatory, Westfield.  Observer R. Holmes.
    Measurers T. Linder, R. Holmes, L. Horn.  0.81-m f/4.0 astrograph + CCD.
Z84 Calar Alto-Schmidt.  Observers R. Kresken, F. Ocana, M. Micheli, L.
    Conversi.  Measurers F. Ocana, M. Micheli.  0.8-m f/3 Schmidt + CCD.
Orbital elements:
2024 MZ1                                                 Earth MOID = 0.0520 AU
Epoch 2024 Mar. 31.0 TT = JDT 2460400.5                 MPC                     
M 347.28495              (2000.0)            P               Q                  
n   0.69732859     Peri.  295.52813     -0.89800475     +0.29268012             
a   1.2594407      Node   262.94096     -0.17756712     -0.92423370             
e   0.2398727      Incl.   19.33129     -0.40256352     -0.24521502             
P   1.41           H   23.57          G   0.15           U   9                  
Residuals in seconds of arc
240630 F51  0.1+  0.2+    240701 H21  0.8-  0.1-    240701 Z84  0.1-  0.1+
240630 F51  0.0   0.1-    240701 H21  0.3+  0.1-    240701 Z84  0.1+  0.1-
240630 F51  0.2-  0.2-    240701 F51  0.4+  0.2+    240701 Z84  0.1-  0.1-
240630 F51  0.1+  0.3-    240701 F51  0.2+  0.1+
Ephemeris:
2024 MZ1                 a,e,i = 1.26, 0.24, 19                  q = 0.9573
Date    TT    R. A. (2000) Decl.     Delta      r    Elong.  Phase     V
2024 06 02    09 16 46.3 -52 37 24   0.09636 1.0282    95.7    78.9    21.3
...
2024 06 17    14 39 10.1 -15 19 22   0.08113 1.0759   136.2    40.8    19.9
...
2024 06 25    15 43 36.6 +03 25 26   0.1207  1.1040   134.3    41.2    20.8
...
2024 07 01    16 09 37.9 +10 02 18   0.1586  1.1259   130.4    43.5    21.5
2024 07 02    16 13 02.0 +10 47 16   0.1653  1.1296   129.8    43.8    21.6
2024 07 03    16 16 14.5 +11 27 46   0.1720  1.1333   129.2    44.0    21.7
...
2024 07 09    16 32 28.6 +14 18 37   0.2138  1.1558   126.1    45.3    22.3
...
2024 07 17    16 49 15.7 +16 03 06   0.2719  1.1860   122.9    46.0    22.9
...
2024 08 01    17 14 49.1 +16 17 04   0.3852  1.2425   117.9    46.2    23.7
A. U. Tomatic                (C) Copyright 2024 MPC           M.P.E.C. 2024-N17
    
    
More information about the Iaude
mailing list